Погода в Петровке

Украина / Одесская область     46°58′07″N   30°57′27″E
темп.,
°C
ветер,
м/с
пор.,
м/с
влажн.,
%
обл.,
%
осадки,
мм/ч
давл.,
гПа
погр.,
м
2 марта, вт
вт223:00+1ссз3683100 0.1 1032292
02:00+1ссз368395 0.1 1033222
05:000сз358488 0.0 1031106
08:00+1зсз347556 0.0 1031217
11:00+5з456034 0.0 1030934
14:00+8з685824 0.0 1027891
17:00+8з6106368 0.0 1024789
20:00+5з5127645 0.0 1024366
3 марта, ср
ср323:00+4сз5138045 0.0 1024641
02:00+4с6117872 0.0 1026926
05:00+3сз5117294 0.0 1026482
08:00+3ссз6117447 0.0 1029601
11:00+7ссз57570 0.0 1029982
14:00+9ссз56450 0.0 10291277
17:00+8сз345024 0.0 1028289
20:00+5з116061 0.0 102822
4 марта, чт
чт423:00+3з226737 0.0 102722
02:00+2юз336919 0.0 102635
05:00+1юз34710 0.0 102351
08:00+4ююз49780 0.0 1022291
11:00+9юз710610 0.0 1019662
14:00+12ююз79520 0.0 1017981
17:00+11ююз596284 0.0 1014306
20:00+6ююз598149 0.0 1014181
5 марта, пт
пт523:00+5юз358718 0.0 101498
02:00+5юз338511 0.0 101335
05:00+5ю228488 0.0 101222
08:00+5ю248394 0.0 1012115
11:00+11ююз4560100 0.0 1011449
14:00+15зюз454077 0.0 1010963
17:00+13ссз355214 0.0 1010163
20:00+8ссв487321 0.0 1011259
6 марта, сб
сб623:00+6с368899 0.0 1013190
02:00+5с578799 0.0 1014394
05:00+3с81088100 0.6 1016531
08:00+2ссв81264100 0.6 1018863
11:00+3с81044100 0.0 10201273
14:00+3с7945100 0.0 10221497
17:00+3с7938100 0.0 10231752
20:000ссз485150 0.0 1026218